Voltar ao catálogo

COSMOS 871

AtivoNavegaçãoLEO
NORAD 9588·PAYLOAD·🇷🇺 Russia

Lançado Dec 7, 1976 de Plesetsk Cosmodrome

Loading…

Próximas Passagens (próximas 24 horas)

TLE

AtualizadoSource: Space-Track

Época: Sep 14, 2026, 14:26 UTC

1 09588U 76118A   26257.60139586  .00000002  00000-0  11287-3 0  9997
2 09588  74.0316 310.4446 0030101 207.9359 306.8152 12.55776735281481

Acompanhe COSMOS 871 em tempo real com AllMySat

Download on the App Store